Weather Roundup
Issued by NWS Chicago, IL

Home | Current Version | Previous Version | Graphics & Text | Print | Product List | Glossary On
Versions: 1 2 3 4 5 6 7 8 9 10 11 12 13 14 15 16 17 18 19 20 21 22 23 24 25 26 27 28 29 30 31 32 33 34 35 36 37 38 39 40 41 42 43 44 45 46 47 48 49 50
000
NZUS59 KLOT 241508
HRRLOT

CHICAGO AREA WEATHER ROUNDUP
NATIONAL WEATHER SERVICE CHICAGO/ROMEOVILLE IL
1000 AM CDT TUE APR 24 2018

NOTE: "FAIR" INDICATES FEW OR NO CLOUDS BELOW 12,000 FEET WITH NO
SIGNIFICANT WEATHER AND/OR OBSTRUCTIONS TO VISIBILITY.

* THESE STATIONS ARE NOT UNDER NWS QUALITY CONTROL. THEY ALSO MAY NOT
  REPORT WEATHER SUCH AS PRECIPITATION OR FOG.

ILZ005-006-012>014-019>023-241600-
NORTHEAST ILLINOIS

CITY           SKY/WX    TMP DP  RH WIND       PRES   REMARKS
OHARE          PTSUNNY   57  44  62 N7        30.05F
MIDWAY         PTSUNNY   57  48  72 E12       30.05F
AURORA         CLOUDY    57  47  69 N6        30.05S
LANSING*       PTSUNNY   56  51  84 NE7       30.04F
JOLIET*          N/A     61  50  67 E10       30.05S
WAUKEGAN       PTSUNNY   55  43  63 NE6       30.06S
DUPAGE AIRPORT   N/A    N/A N/A N/A MISG      30.05S
WHEELING       PTSUNNY   58  43  57 E5        30.07F
KANKAKEE*      CLOUDY    55  53  93 NE7       30.04F
MORRIS*        CLOUDY    60  49  67 NE6       30.04S
LEWIS AIRPORT* PTSUNNY   58  48  68 E10       30.04F
NORTHERLY ISL    N/A     50  40  68 N10         N/A
$$

WIZ051-052-058>065-066-070>072-241600-
SOUTHEAST WISCONSIN

CITY           SKY/WX    TMP DP  RH WIND       PRES   REMARKS
MILWAUKEE      PTSUNNY   53  33  46 N6        30.09S
KENOSHA*       CLOUDY    52  36  54 N5        30.07F
RACINE*        CLOUDY    49  35  58 N8        30.09F
BURLINGTON       N/A     56  32  39 N3        30.07F
WAUKESHA       SUNNY     55  28  35 N10       30.09S
WEST BEND        N/A     57  28  33 E3        30.07F
$$

INZ001>003-010>013-019-020-241600-
NORTHWEST INDIANA

CITY           SKY/WX    TMP DP  RH WIND       PRES   REMARKS
GARY*          PTSUNNY   52  46  82 CALM      30.06F
MICHIGAN CITY* NOT AVBL
RENSSELAER*    NOT AVBL
VALPARAISO     CLOUDY    58  51  78 E9        30.04F
$$

LMZ740>746-241600-
SOUTHERN LAKE MICHIGAN

STATION/POSITION TIME  SKY/WX   TEMP WIND        PRES    VSBY
                                AIR  DIR/SP/G
                 (UTC)          (F)  (DEG/KT/KT) (MB)    (MI)
HARRISON CRIB    1440            42  350/ 10/ 10   N/A
BURNHAM HARBOR   1500            50  360/  7/ 10   N/A
CALUMET HARBOR   1442            48  340/  9/ 11 1017.4S
BURNS HARBOR     1440            44  360/  2/  3 1018.3F
MICHIGAN CITY    1440            47   30/  6/  7   N/A
$$

ABBREVIATIONS USED IN REMARKS
   TC - TEMPERATURE IN CELSIUS
  WCI - WIND CHILL INDEX
   HX - HEAT INDEX
  VSB - VISIBILITY
$$




USA.gov is the U.S. government's official web portal to all federal, state and local government web resources and services.